User: anonymous   Login
Location: Kings Park
(40.8862°N, 73.2573°W)
Time: 23:59:20
(UTC+00:00)
Language:

Cosmos 1553 Rocket - Orbit

View from above orbital plane
View from above orbital plane
View from above satellite
View from above satellite

Ground track
Ground track

The orbit data is extracted from the following two-line orbital elements,

1 14974U 84046B   21018.42773910  .00000081  00000-0  66475-4 0  9993
2 14974  82.9341 246.7422 0044002 292.3645 241.9131 13.76941412842409
Epoch (UTC): 18 January 2021 10:15:56
Eccentricity: 0.0044002
inclination: 82.9341°
perigee height: 942 km
apogee height: 1007 km
right ascension of ascending node: 246.7422°
argument of perigee: 292.3645°
revolutions per day: 13.76941412
mean anomaly at epoch: 241.9131°
orbit number at epoch: 84240

The dashed part of the orbit path shows where the satellite is in the earth's shadow,  

DLR